Location: Gilevgi
(36.8751°N, 30.0581°E)
Time: 08:57:54
(UTC+00:00)

IRS-P3 - Pass Details

Date: 21 March 2026
Orbit: 810 x 816 km, 99.0° (Epoch: 20 April)

Event Time Altitude Azimuth Distance (km) Brightness Sun altitude
Rises 17:50:34 0° 219° (SW) 3,329 7.6 -20.2°
Reaches altitude 10° 17:55:02 10° 254° (WSW) 2,403 7.4 -21.0°
Maximum altitude 17:56:24 11° 269° (W) 2,340 7.5 -21.3°
Drops below altitude 10° 17:57:46 10° 284° (WNW) 2,407 7.7 -21.6°
Sets 18:02:16 0° 320° (NW) 3,345 8.3 -22.4°
